,,Stat6,,Stat2,,Stat8,,Stat9,,Stat10,,Wind1,,Wind1,
time,status,PA1M_AVG,status,PR1M_SUM,status,RH1M_AVG,status,SR1M_AVG,status,TA1M_AVG,status,W1dAve1m,status,W1sAve1m,
2008-11-06, 00:00:00,VALID,916.237,VALID,0,VALID,100,VALID,-0.101885,VALID,19.4604,VALID,179,VALID,0,
2008-11-06, 00:01:00,VALID,916.244,VALID,0,VALID,100,VALID,-0.118866,VALID,19.4572,VALID,179,VALID,0,
2008-11-06, 00:02:00,VALID,916.252,VALID,0,VALID,100,VALID,-0.118866,VALID,19.4637,VALID,179,VALID,0,
2008-11-06, 00:03:00,VALID,916.239,VALID,0,VALID,100,VALID,-0.135847,VALID,19.4567,VALID,179,VALID,0,
2008-11-06, 00:04:00,VALID,916.229,VALID,0,VALID,100,VALID,-0.0679233,VALID,19.4694,VALID,179,VALID,0,
2008-11-06, 00:05:00,VALID,916.242,VALID,0,VALID,100,VALID,-0.0169808,VALID,19.4682,VALID,179,VALID,0,
2008-11-06, 00:06:00,VALID,916.221,VALID,0,VALID,100,VALID,-0.0339617,VALID,19.4784,VALID,179,VALID,0,
2008-11-06, 00:07:00,VALID,916.202,VALID,0,VALID,100,VALID,-0.0169808,VALID,19.4687,VALID,179,VALID,0,
2008-11-06, 00:08:00,VALID,916.197,VALID,0,VALID,100,VALID,0,VALID,19.4722,VALID,179,VALID,0,
2008-11-06, 00:09:00,VALID,916.177,VALID,0,VALID,100,VALID,-0.0509425,VALID,19.4587,VALID,179,VALID,0,
2008-11-06, 00:10:00,VALID,916.163,VALID,0,VALID,100,VALID,0,VALID,19.442,VALID,179,VALID,0,
2008-11-06, 00:11:00,VALID,916.148,VALID,0,VALID,100,VALID,0,VALID,19.449,VALID,179,VALID,0,
2008-11-06, 00:12:00,VALID,916.136,VALID,0,VALID,100,VALID,0.0169808,VALID,19.4453,VALID,179,VALID,0,
2008-11-06, 00:13:00,VALID,916.125,VALID,0,VALID,100,VALID,0.0169808,VALID,19.4223,VALID,179,VALID,0,
2008-11-06, 00:14:00,VALID,916.122,VALID,0,VALID,100,VALID,-0.0339617,VALID,19.4066,VALID,179,VALID,0,
2008-11-06, 00:15:00,VALID,916.103,VALID,0,VALID,100,VALID,0,VALID,19.3933,VALID,179,VALID,0,
2008-11-06, 00:16:00,VALID,916.077,VALID,0,VALID,100,VALID,0,VALID,19.3968,VALID,179,VALID,0,
2008-11-06, 00:17:00,VALID,916.05,VALID,0,VALID,100,VALID,-0.0339617,VALID,19.3998,VALID,179,VALID,0,
2008-11-06, 00:18:00,VALID,916.017,VALID,0,VALID,100,VALID,0,VALID,19.42,VALID,179,VALID,0,
2008-11-06, 00:19:00,VALID,915.997,VALID,0,VALID,100,VALID,0,VALID,19.4101,VALID,179,VALID,0,
2008-11-06, 00:20:00,VALID,915.964,VALID,0,VALID,100,VALID,-0.0339617,VALID,19.4031,VALID,179,VALID,0,
2008-11-06, 00:21:00,VALID,915.955,VALID,0,VALID,100,VALID,0,VALID,19.3933,VALID,179,VALID,0,
2008-11-06, 00:22:00,VALID,915.948,VALID,0,VALID,100,VALID,0,VALID,19.4068,VALID,179,VALID,0,
2008-11-06, 00:23:00,VALID,915.937,VALID,0,VALID,100,VALID,0.0169808,VALID,19.4265,VALID,179,VALID,0,
2008-11-06, 00:24:00,VALID,915.947,VALID,0,VALID,100,VALID,0,VALID,19.4225,VALID,179,VALID,0,
2008-11-06, 00:25:00,VALID,915.937,VALID,0,VALID,100,VALID,0,VALID,19.4255,VALID,179,VALID,0,
2008-11-06, 00:26:00,VALID,915.941,VALID,0,VALID,100,VALID,0,VALID,19.4358,VALID,179,VALID,0,
2008-11-06, 00:27:00,VALID,915.952,VALID,0,VALID,100,VALID,-0.0169808,VALID,19.4193,VALID,179,VALID,0,
2008-11-06, 00:28:00,VALID,915.954,VALID,0,VALID,100,VALID,0.0169808,VALID,19.4028,VALID,179,VALID,0,
2008-11-06, 00:29:00,VALID,915.941,VALID,0,VALID,100,VALID,0,VALID,19.4096,VALID,179,VALID,0,
2008-11-06, 00:30:00,VALID,915.955,VALID,0,VALID,100,VALID,0,VALID,19.4068,VALID,179,VALID,0,
2008-11-06, 00:31:00,VALID,915.964,VALID,0,VALID,100,VALID,-0.0169808,VALID,19.4358,VALID,179,VALID,0,
2008-11-06, 00:32:00,VALID,915.954,VALID,0,VALID,100,VALID,0,VALID,19.4585,VALID,179,VALID,0,
2008-11-06, 00:33:00,VALID,915.967,VALID,0,VALID,100,VALID,-0.0169808,VALID,19.468,VALID,179,VALID,0,
2008-11-06, 00:34:00,VALID,915.982,VALID,0,VALID,100,VALID,-0.0169808,VALID,19.4782,VALID,179,VALID,0,
2008-11-06, 00:35:00,VALID,915.981,VALID,0,VALID,100,VALID,0,VALID,19.4715,VALID,179,VALID,0,
2008-11-06, 00:36:00,VALID,915.986,VALID,0,VALID,100,VALID,0,VALID,19.4715,VALID,179,VALID,0,
2008-11-06, 00:37:00,VALID,915.986,VALID,0,VALID,100,VALID,-0.0169808,VALID,19.468,VALID,179,VALID,0,
2008-11-06, 00:38:00,VALID,915.993,VALID,0,VALID,100,VALID,-0.0169808,VALID,19.4749,VALID,179,VALID,0,
2008-11-06, 00:39:00,VALID,915.978,VALID,0,VALID,100,VALID,-0.0679233,VALID,19.4817,VALID,179,VALID,0,
2008-11-06, 00:40:00,VALID,915.962,VALID,0,VALID,100,VALID,0,VALID,19.4947,VALID,179,VALID,0,
2008-11-06, 00:41:00,VALID,915.94,VALID,0,VALID,100,VALID,0,VALID,19.5044,VALID,179,VALID,0,
2008-11-06, 00:42:00,VALID,915.928,VALID,0,VALID,100,VALID,0,VALID,19.5166,VALID,179,VALID,0,
2008-11-06, 00:43:00,VALID,915.907,VALID,0,VALID,100,VALID,0,VALID,19.5324,VALID,179,VALID,0,
2008-11-06, 00:44:00,VALID,915.898,VALID,0,VALID,100,VALID,0,VALID,19.5623,VALID,179,VALID,0,
2008-11-06, 00:45:00,VALID,915.87,VALID,0,VALID,100,VALID,0.0339617,VALID,19.565,VALID,179,VALID,0,
2008-11-06, 00:46:00,VALID,915.853,VALID,0,VALID,100,VALID,-0.0339617,VALID,19.5785,VALID,179,VALID,0,
2008-11-06, 00:47:00,VALID,915.822,VALID,0,VALID,100,VALID,0.0169808,VALID,19.582,VALID,179,VALID,0,
2008-11-06, 00:48:00,VALID,915.798,VALID,0,VALID,100,VALID,0,VALID,19.588,VALID,179,VALID,0,
2008-11-06, 00:49:00,VALID,915.785,VALID,0,VALID,100,VALID,-0.0169808,VALID,19.6012,VALID,179,VALID,0,
2008-11-06, 00:50:00,VALID,915.763,VALID,0,VALID,100,VALID,-0.0169808,VALID,19.6145,VALID,179,VALID,0,
2008-11-06, 00:51:00,VALID,915.756,VALID,0,VALID,100,VALID,0,VALID,19.6115,VALID,179,VALID,0,
2008-11-06, 00:52:00,VALID,915.744,VALID,0,VALID,100,VALID,0,VALID,19.611,VALID,179,VALID,0,
2008-11-06, 00:53:00,VALID,915.748,VALID,0,VALID,100,VALID,0,VALID,19.6107,VALID,179,VALID,0,
2008-11-06, 00:54:00,VALID,915.734,VALID,0,VALID,100,VALID,0.0169808,VALID,19.6105,VALID,179,VALID,0,
2008-11-06, 00:55:00,VALID,915.714,VALID,0,VALID,100,VALID,0,VALID,19.6142,VALID,179,VALID,0,
2008-11-06, 00:56:00,VALID,915.688,VALID,0,VALID,100,VALID,0,VALID,19.6107,VALID,179,VALID,0,
2008-11-06, 00:57:00,VALID,915.652,VALID,0,VALID,100,VALID,0,VALID,19.6279,VALID,179,VALID,0,
2008-11-06, 00:58:00,VALID,915.626,VALID,0,VALID,100,VALID,-0.0169808,VALID,19.6112,VALID,179,VALID,0,
2008-11-06, 00:59:00,VALID,915.586,VALID,0,VALID,100,VALID,-0.0339617,VALID,19.6047,VALID,179,VALID,0,
2008-11-06, 01:00:00,VALID,915.565,VALID,0,VALID,100,VALID,0,VALID,19.6147,VALID,179,VALID,0,
2008-11-06, 01:01:00,VALID,915.557,VALID,0,VALID,100,VALID,-0.0169808,VALID,19.6147,VALID,179,VALID,0,
2008-11-06, 01:02:00,VALID,915.542,VALID,0,VALID,100,VALID,0,VALID,19.6145,VALID,180,VALID,0,
2008-11-06, 01:03:00,VALID,915.557,VALID,0,VALID,100,VALID,0.0169808,VALID,19.6012,VALID,181,VALID,0,
2008-11-06, 01:04:00,VALID,915.556,VALID,0,VALID,100,VALID,0,VALID,19.6149,VALID,181,VALID,0,
2008-11-06, 01:05:00,VALID,915.568,VALID,0,VALID,100,VALID,-0.0339617,VALID,19.598,VALID,181,VALID,0,
2008-11-06, 01:06:00,VALID,915.569,VALID,0,VALID,100,VALID,0,VALID,19.601,VALID,181,VALID,0,
2008-11-06, 01:07:00,VALID,915.568,VALID,0,VALID,100,VALID,0,VALID,19.5878,VALID,181,VALID,0,
2008-11-06, 01:08:00,VALID,915.552,VALID,0,VALID,100,VALID,0,VALID,19.598,VALID,181,VALID,0,
2008-11-06, 01:09:00,VALID,915.555,VALID,0,VALID,100,VALID,0,VALID,19.5813,VALID,181,VALID,0,
2008-11-06, 01:10:00,VALID,915.542,VALID,0,VALID,100,VALID,-0.0169808,VALID,19.6145,VALID,181,VALID,0,
2008-11-06, 01:11:00,VALID,915.539,VALID,0,VALID,100,VALID,0,VALID,19.6045,VALID,181,VALID,0,
2008-11-06, 01:12:00,VALID,915.533,VALID,0,VALID,100,VALID,-0.0509425,VALID,19.608,VALID,181,VALID,0,
2008-11-06, 01:13:00,VALID,915.523,VALID,0,VALID,100,VALID,0,VALID,19.608,VALID,181,VALID,0,
2008-11-06, 01:14:00,VALID,915.518,VALID,0,VALID,100,VALID,-0.0339617,VALID,19.6077,VALID,181,VALID,0,
2008-11-06, 01:15:00,VALID,915.524,VALID,0,VALID,100,VALID,-0.0169808,VALID,19.6112,VALID,181,VALID,0,
2008-11-06, 01:16:00,VALID,915.526,VALID,0,VALID,100,VALID,0,VALID,19.6112,VALID,181,VALID,0,
2008-11-06, 01:17:00,VALID,915.513,VALID,0,VALID,100,VALID,0,VALID,19.5753,VALID,181,VALID,0,
2008-11-06, 01:18:00,VALID,915.502,VALID,0,VALID,100,VALID,0,VALID,19.575,VALID,181,VALID,0,
2008-11-06, 01:19:00,VALID,915.491,VALID,0,VALID,100,VALID,-0.0169808,VALID,19.5887,VALID,181,VALID,0,
2008-11-06, 01:20:01,VALID,915.47,VALID,0,VALID,100,VALID,0,VALID,19.5915,VALID,181,VALID,0,
2008-11-06, 01:21:00,VALID,915.461,VALID,0,VALID,100,VALID,0,VALID,19.608,VALID,181,VALID,0,
2008-11-06, 01:22:00,VALID,915.452,VALID,0,VALID,100,VALID,0,VALID,19.6214,VALID,181,VALID,0,
2008-11-06, 01:23:00,VALID,915.441,VALID,0,VALID,100,VALID,0,VALID,19.6145,VALID,181,VALID,0,
2008-11-06, 01:24:01,VALID,915.436,VALID,0,VALID,100,VALID,-0.0339617,VALID,19.6212,VALID,181,VALID,0,
2008-11-06, 01:25:01,VALID,915.425,VALID,0,VALID,100,VALID,-0.0169808,VALID,19.6145,VALID,181,VALID,0,
2008-11-06, 01:26:00,VALID,915.435,VALID,0,VALID,100,VALID,-0.0169808,VALID,19.6077,VALID,181,VALID,0,
2008-11-06, 01:27:00,VALID,915.432,VALID,0,VALID,100,VALID,-0.0169808,VALID,19.6017,VALID,181,VALID,0,
2008-11-06, 01:28:01,VALID,915.433,VALID,0,VALID,100,VALID,-0.0169808,VALID,19.5985,VALID,181,VALID,0,
2008-11-06, 01:29:01,VALID,915.449,VALID,0,VALID,100,VALID,0,VALID,19.5917,VALID,181,VALID,0,
2008-11-06, 01:30:00,VALID,915.448,VALID,0,VALID,100,VALID,-0.0169808,VALID,19.592,VALID,181,VALID,0,
2008-11-06, 01:31:00,VALID,915.445,VALID,0,VALID,100,VALID,0,VALID,19.585,VALID,181,VALID,0,
2008-11-06, 01:32:00,VALID,915.444,VALID,0,VALID,100,VALID,0,VALID,19.5785,VALID,181,VALID,0,
2008-11-06, 01:33:00,VALID,915.432,VALID,0,VALID,100,VALID,0,VALID,19.595,VALID,181,VALID,0,
2008-11-06, 01:34:00,VALID,915.427,VALID,0,VALID,100,VALID,-0.0339617,VALID,19.6147,VALID,181,VALID,0,
2008-11-06, 01:35:00,VALID,915.414,VALID,0,VALID,100,VALID,-0.0169808,VALID,19.6137,VALID,181,VALID,0,
2008-11-06, 01:36:01,VALID,915.384,VALID,0,VALID,100,VALID,0,VALID,19.6374,VALID,181,VALID,0,
2008-11-06, 01:37:01,VALID,915.371,VALID,0,VALID,100,VALID,-0.0169808,VALID,19.6566,VALID,181,VALID,0,
2008-11-06, 01:38:01,VALID,915.352,VALID,0,VALID,100,VALID,0.0169808,VALID,19.6659,VALID,181,VALID,0,
2008-11-06, 01:39:00,VALID,915.329,VALID,0,VALID,100,VALID,0,VALID,19.6624,VALID,181,VALID,0,
2008-11-06, 01:40:01,VALID,915.323,VALID,0,VALID,100,VALID,0,VALID,19.6661,VALID,70,VALID,0,
2008-11-06, 01:41:00,VALID,915.301,VALID,0,VALID,100,VALID,0,VALID,19.6689,VALID,41,VALID,0,
2008-11-06, 01:42:00,VALID,915.287,VALID,0,VALID,100,VALID,0,VALID,19.6951,VALID,41,VALID,0,
2008-11-06, 01:43:00,VALID,915.284,VALID,0.2,VALID,100,VALID,0.0169808,VALID,19.7078,VALID,41,VALID,0,
2008-11-06, 01:44:01,VALID,915.245,VALID,0,VALID,100,VALID,0,VALID,19.7143,VALID,41,VALID,0,
2008-11-06, 01:45:01,VALID,915.231,VALID,0,VALID,100,VALID,-0.0339617,VALID,19.7148,VALID,41,VALID,0,
2008-11-06, 01:46:01,VALID,915.213,VALID,0,VALID,100,VALID,0,VALID,19.7113,VALID,41,VALID,0,
2008-11-06, 01:47:00,VALID,915.192,VALID,0,VALID,100,VALID,0,VALID,19.7145,VALID,41,VALID,0,
2008-11-06, 01:48:01,VALID,915.173,VALID,0,VALID,100,VALID,-0.0169808,VALID,19.7145,VALID,41,VALID,0,
2008-11-06, 01:49:00,VALID,915.155,VALID,0,VALID,100,VALID,0,VALID,19.7085,VALID,41,VALID,0,
2008-11-06, 01:50:00,VALID,915.153,VALID,0,VALID,100,VALID,-0.0679233,VALID,19.6928,VALID,41,VALID,0,
2008-11-06, 01:51:01,VALID,915.135,VALID,0,VALID,100,VALID,-0.0339617,VALID,19.6896,VALID,41,VALID,0,
2008-11-06, 01:52:00,VALID,915.127,VALID,0,VALID,100,VALID,-0.0679233,VALID,19.6664,VALID,41,VALID,0,
2008-11-06, 01:53:00,VALID,915.126,VALID,0,VALID,100,VALID,-0.0339617,VALID,19.6666,VALID,41,VALID,0,
2008-11-06, 01:54:00,VALID,915.12,VALID,0,VALID,100,VALID,-0.0509425,VALID,19.6699,VALID,41,VALID,0,
2008-11-06, 01:55:01,VALID,915.122,VALID,0,VALID,100,VALID,-0.0169808,VALID,19.6599,VALID,41,VALID,0,
2008-11-06, 01:56:00,VALID,915.122,VALID,0,VALID,100,VALID,-0.0169808,VALID,19.6504,VALID,41,VALID,0,
2008-11-06, 01:57:01,VALID,915.13,VALID,0,VALID,100,VALID,0,VALID,19.6626,VALID,40,VALID,0,
2008-11-06, 01:58:00,VALID,915.133,VALID,0,VALID,100,VALID,0,VALID,19.6826,VALID,39,VALID,0,
2008-11-06, 01:59:01,VALID,915.143,VALID,0,VALID,100,VALID,0,VALID,19.6856,VALID,39,VALID,0,
2008-11-06, 02:00:00,VALID,915.152,VALID,0,VALID,100,VALID,-0.0169808,VALID,19.6599,VALID,39,VALID,0,
2008-11-06, 02:01:01,VALID,915.173,VALID,0.2,VALID,100,VALID,-0.0169808,VALID,19.6604,VALID,37,VALID,0,
2008-11-06, 02:02:01,VALID,915.181,VALID,0,VALID,100,VALID,-0.0339617,VALID,19.6601,VALID,35,VALID,0,
2008-11-06, 02:03:01,VALID,915.189,VALID,0,VALID,100,VALID,-0.0339617,VALID,19.6604,VALID,31,VALID,0.242188,
2008-11-06, 02:04:00,VALID,915.187,VALID,0,VALID,100,VALID,-0.0339617,VALID,19.6631,VALID,21,VALID,0.0849848,
2008-11-06, 02:05:01,VALID,915.188,VALID,0,VALID,100,VALID,-0.0509425,VALID,19.6798,VALID,21,VALID,0.00872093,
2008-11-06, 02:06:01,VALID,915.178,VALID,0,VALID,100,VALID,-0.0509425,VALID,19.6761,VALID,20,VALID,0.00744048,
2008-11-06, 02:07:01,VALID,915.162,VALID,0,VALID,100,VALID,-0.0169808,VALID,19.6828,VALID,25,VALID,0,
2008-11-06, 02:08:01,VALID,915.138,VALID,0,VALID,100,VALID,-0.0339617,VALID,19.6863,VALID,19,VALID,0,
2008-11-06, 02:09:01,VALID,915.124,VALID,0,VALID,100,VALID,-0.0169808,VALID,19.6669,VALID,7,VALID,0.00558036,
2008-11-06, 02:10:01,VALID,915.104,VALID,0,VALID,100,VALID,-0.0339617,VALID,19.6312,VALID,12,VALID,0.0421464,
2008-11-06, 02:11:01,VALID,915.116,VALID,0,VALID,100,VALID,0,VALID,19.6239,VALID,16,VALID,0.0381944,
2008-11-06, 02:12:01,VALID,915.097,VALID,0,VALID,100,VALID,-0.0169808,VALID,19.6277,VALID,19,VALID,0,
2008-11-06, 02:13:00,VALID,915.096,VALID,0,VALID,100,VALID,-0.0339617,VALID,19.6177,VALID,25,VALID,0,
2008-11-06, 02:14:00,VALID,915.096,VALID,0,VALID,100,VALID,-0.0339617,VALID,19.6212,VALID,15,VALID,0,
2008-11-06, 02:15:00,VALID,915.095,VALID,0,VALID,100,VALID,-0.0509425,VALID,19.6212,VALID,14,VALID,0,
2008-11-06, 02:16:00,VALID,915.083,VALID,0,VALID,100,VALID,-0.0509425,VALID,19.6409,VALID,20,VALID,0,
2008-11-06, 02:17:00,VALID,915.07,VALID,0,VALID,100,VALID,-0.0679233,VALID,19.6506,VALID,24,VALID,0,
2008-11-06, 02:18:00,VALID,915.062,VALID,0,VALID,100,VALID,-0.0509425,VALID,19.6509,VALID,14,VALID,0.00114329,
2008-11-06, 02:19:00,VALID,915.048,VALID,0,VALID,100,VALID,-0.0509425,VALID,19.6571,VALID,19,VALID,0.100632,
2008-11-06, 02:20:00,VALID,915.048,VALID,0,VALID,100,VALID,-0.0679233,VALID,19.6539,VALID,26,VALID,0.0613281,
2008-11-06, 02:21:00,VALID,915.052,VALID,0,VALID,100,VALID,-0.0169808,VALID,19.6506,VALID,350,VALID,0.109561,
2008-11-06, 02:22:00,VALID,915.055,VALID,0,VALID,100,VALID,-0.0509425,VALID,19.6407,VALID,2,VALID,0.234175,
2008-11-06, 02:23:00,VALID,915.062,VALID,0,VALID,100,VALID,-0.0339617,VALID,19.6474,VALID,19,VALID,0.0790551,
2008-11-06, 02:24:00,VALID,915.059,VALID,0,VALID,100,VALID,-0.0509425,VALID,19.6309,VALID,340,VALID,0.00745739,
2008-11-06, 02:25:00,VALID,915.058,VALID,0,VALID,100,VALID,-0.0169808,VALID,19.6279,VALID,10,VALID,0.813227,
2008-11-06, 02:26:00,VALID,915.041,VALID,0,VALID,100,VALID,0,VALID,19.6277,VALID,14,VALID,1.00521,
2008-11-06, 02:27:00,VALID,915.04,VALID,0,VALID,100,VALID,0.0169808,VALID,19.6209,VALID,8,VALID,1.78411,
2008-11-06, 02:28:00,VALID,915.027,VALID,0,VALID,100,VALID,-0.0169808,VALID,19.6149,VALID,8,VALID,1.36285,
2008-11-06, 02:29:00,VALID,915.023,VALID,0,VALID,100,VALID,-0.0169808,VALID,19.6145,VALID,10,VALID,0.128997,
2008-11-06, 02:30:00,VALID,915.011,VALID,0,VALID,100,VALID,0,VALID,19.6244,VALID,19,VALID,0.510231,
2008-11-06, 02:31:00,VALID,915.02,VALID,0,VALID,100,VALID,-0.0679233,VALID,19.6209,VALID,28,VALID,0.925586,
2008-11-06, 02:32:00,VALID,915.023,VALID,0,VALID,100,VALID,0,VALID,19.6504,VALID,24,VALID,0.522711,
2008-11-06, 02:33:00,VALID,915.016,VALID,0,VALID,100,VALID,-0.0169808,VALID,19.6596,VALID,22,VALID,0.637195,
2008-11-06, 02:34:00,VALID,915.018,VALID,0,VALID,100,VALID,-0.0679233,VALID,19.6694,VALID,9,VALID,0.15625,
2008-11-06, 02:35:00,VALID,915.025,VALID,0,VALID,100,VALID,-0.0679233,VALID,19.6731,VALID,3,VALID,0.0117188,
2008-11-06, 02:36:00,VALID,915.018,VALID,0,VALID,100,VALID,-0.0169808,VALID,19.6599,VALID,2,VALID,0.877663,
2008-11-06, 02:37:00,VALID,915.029,VALID,0,VALID,100,VALID,-0.0679233,VALID,19.6501,VALID,32,VALID,0.354936,
2008-11-06, 02:38:00,VALID,915.028,VALID,0,VALID,100,VALID,0,VALID,19.6534,VALID,28,VALID,0,
2008-11-06, 02:39:00,VALID,915.024,VALID,0,VALID,100,VALID,-0.0169808,VALID,19.6726,VALID,23,VALID,0.00111607,
2008-11-06, 02:40:00,VALID,915.022,VALID,0,VALID,100,VALID,-0.0169808,VALID,19.6993,VALID,27,VALID,0.114397,
2008-11-06, 02:41:00,VALID,915.03,VALID,0,VALID,100,VALID,-0.0169808,VALID,19.7088,VALID,26,VALID,0.0602921,
2008-11-06, 02:42:00,VALID,915.035,VALID,0,VALID,100,VALID,-0.0339617,VALID,19.7153,VALID,26,VALID,0,
2008-11-06, 02:43:00,VALID,915.031,VALID,0,VALID,100,VALID,0,VALID,19.7118,VALID,26,VALID,0,
2008-11-06, 02:44:00,VALID,915.016,VALID,0,VALID,100,VALID,-0.0339617,VALID,19.7148,VALID,26,VALID,0,
2008-11-06, 02:45:00,VALID,915.016,VALID,0,VALID,100,VALID,0,VALID,19.7218,VALID,26,VALID,0,
2008-11-06, 02:46:00,VALID,915.02,VALID,0,VALID,100,VALID,-0.0169808,VALID,19.7315,VALID,26,VALID,0,
2008-11-06, 02:47:00,VALID,915.016,VALID,0,VALID,100,VALID,-0.0169808,VALID,19.7345,VALID,26,VALID,0,
2008-11-06, 02:48:00,VALID,915.005,VALID,0,VALID,100,VALID,0,VALID,19.731,VALID,26,VALID,0,
2008-11-06, 02:49:00,VALID,915.001,VALID,0,VALID,100,VALID,-0.0339617,VALID,19.7405,VALID,26,VALID,0,
2008-11-06, 02:50:00,VALID,914.992,VALID,0,VALID,100,VALID,0,VALID,19.7405,VALID,26,VALID,0,
2008-11-06, 02:51:00,VALID,914.965,VALID,0,VALID,100,VALID,-0.0169808,VALID,19.7502,VALID,26,VALID,0,
2008-11-06, 02:52:00,VALID,914.971,VALID,0,VALID,100,VALID,0,VALID,19.7664,VALID,26,VALID,0,
2008-11-06, 02:53:00,VALID,914.969,VALID,0,VALID,100,VALID,-0.0169808,VALID,19.7699,VALID,26,VALID,0,
2008-11-06, 02:54:00,VALID,914.951,VALID,0,VALID,100,VALID,-0.0339617,VALID,19.76,VALID,27,VALID,0,
2008-11-06, 02:55:00,VALID,914.946,VALID,0,VALID,100,VALID,-0.0169808,VALID,19.75,VALID,29,VALID,0,
2008-11-06, 02:56:00,VALID,914.952,VALID,0,VALID,100,VALID,-0.0169808,VALID,19.747,VALID,26,VALID,0,
2008-11-06, 02:57:00,VALID,914.951,VALID,0,VALID,100,VALID,0,VALID,19.73,VALID,23,VALID,0,
2008-11-06, 02:58:00,VALID,914.946,VALID,0,VALID,100,VALID,0,VALID,19.7337,VALID,23,VALID,0,
2008-11-06, 02:59:00,VALID,914.941,VALID,0,VALID,100,VALID,0,VALID,19.7273,VALID,17,VALID,0,
2008-11-06, 03:00:00,VALID,914.946,VALID,0,VALID,100,VALID,0,VALID,19.7078,VALID,16,VALID,0,
2008-11-06, 03:01:00,VALID,914.931,VALID,0,VALID,100,VALID,0,VALID,19.7145,VALID,16,VALID,0,
2008-11-06, 03:02:00,VALID,914.934,VALID,0,VALID,100,VALID,0,VALID,19.7173,VALID,16,VALID,0,
2008-11-06, 03:03:00,VALID,914.915,VALID,0,VALID,100,VALID,-0.0169808,VALID,19.7143,VALID,7,VALID,0.271949,
2008-11-06, 03:04:00,VALID,914.923,VALID,0,VALID,100,VALID,-0.0339617,VALID,19.7013,VALID,20,VALID,0.303943,
2008-11-06, 03:05:00,VALID,914.926,VALID,0,VALID,100,VALID,0,VALID,19.6883,VALID,20,VALID,0.858789,
2008-11-06, 03:06:00,VALID,914.938,VALID,0,VALID,100,VALID,-0.0339617,VALID,19.6629,VALID,18,VALID,1.3315,
2008-11-06, 03:07:00,VALID,914.935,VALID,0,VALID,100,VALID,0,VALID,19.6526,VALID,15,VALID,1.18859,
2008-11-06, 03:08:00,VALID,914.937,VALID,0,VALID,100,VALID,0.0339617,VALID,19.6394,VALID,16,VALID,0.0736607,
2008-11-06, 03:09:00,VALID,914.915,VALID,0,VALID,100,VALID,0,VALID,19.6459,VALID,4,VALID,0.00855655,
2008-11-06, 03:10:00,VALID,914.902,VALID,0,VALID,100,VALID,0.0169808,VALID,19.6397,VALID,9,VALID,0.0220788,
2008-11-06, 03:11:00,VALID,914.912,VALID,0,VALID,100,VALID,0.0169808,VALID,19.6432,VALID,22,VALID,0,
2008-11-06, 03:12:00,VALID,914.911,VALID,0,VALID,100,VALID,-0.0169808,VALID,19.6359,VALID,8,VALID,0,
2008-11-06, 03:13:00,VALID,914.907,VALID,0,VALID,100,VALID,-0.0169808,VALID,19.6589,VALID,28,VALID,0.0626776,
2008-11-06, 03:14:00,VALID,914.901,VALID,0,VALID,100,VALID,0,VALID,19.6689,VALID,26,VALID,0,
2008-11-06, 03:15:00,VALID,914.892,VALID,0,VALID,100,VALID,0,VALID,19.6749,VALID,25,VALID,0,
2008-11-06, 03:16:00,VALID,914.894,VALID,0,VALID,100,VALID,0,VALID,19.6881,VALID,30,VALID,0,
2008-11-06, 03:17:00,VALID,914.886,VALID,0,VALID,100,VALID,0,VALID,19.7113,VALID,37,VALID,0,
2008-11-06, 03:18:00,VALID,914.872,VALID,0,VALID,100,VALID,0,VALID,19.714,VALID,37,VALID,0.0496652,
2008-11-06, 03:19:00,VALID,914.867,VALID,0,VALID,100,VALID,-0.0339617,VALID,19.7283,VALID,37,VALID,0.00605469,
2008-11-06, 03:20:00,VALID,914.856,VALID,0,VALID,100,VALID,-0.101885,VALID,19.726,VALID,35,VALID,0.239901,
2008-11-06, 03:21:00,VALID,914.869,VALID,0,VALID,100,VALID,-0.118866,VALID,19.7195,VALID,29,VALID,0,
2008-11-06, 03:22:00,VALID,914.867,VALID,0,VALID,100,VALID,-0.101885,VALID,19.7128,VALID,34,VALID,0.00563227,
2008-11-06, 03:23:00,VALID,914.864,VALID,0,VALID,100,VALID,-0.101885,VALID,19.6966,VALID,28,VALID,0.182091,
2008-11-06, 03:24:00,VALID,914.89,VALID,0,VALID,100,VALID,-0.169808,VALID,19.6968,VALID,16,VALID,0.00533537,
2008-11-06, 03:25:00,VALID,914.897,VALID,0,VALID,100,VALID,-0.101885,VALID,19.6901,VALID,26,VALID,0,
2008-11-06, 03:26:00,VALID,914.903,VALID,0,VALID,100,VALID,-0.101885,VALID,19.6968,VALID,21,VALID,0,
2008-11-06, 03:27:00,VALID,914.901,VALID,0,VALID,100,VALID,-0.135847,VALID,19.6996,VALID,36,VALID,0.0842634,
2008-11-06, 03:28:00,VALID,914.901,VALID,0,VALID,100,VALID,-0.101885,VALID,19.7063,VALID,32,VALID,0.136433,
2008-11-06, 03:29:00,VALID,914.901,VALID,0,VALID,100,VALID,-0.118866,VALID,19.7163,VALID,32,VALID,0,
2008-11-06, 03:30:00,VALID,914.912,VALID,0,VALID,100,VALID,-0.135847,VALID,19.7258,VALID,32,VALID,0,
2008-11-06, 03:31:00,VALID,914.899,VALID,0,VALID,100,VALID,-0.118866,VALID,19.7223,VALID,32,VALID,0,
2008-11-06, 03:32:00,VALID,914.918,VALID,0,VALID,100,VALID,-0.118866,VALID,19.729,VALID,28,VALID,0,
2008-11-06, 03:33:00,VALID,914.917,VALID,0,VALID,100,VALID,-0.101885,VALID,19.719,VALID,24,VALID,0,
2008-11-06, 03:34:00,VALID,914.918,VALID,0,VALID,100,VALID,-0.118866,VALID,19.7427,VALID,24,VALID,0,
2008-11-06, 03:35:00,VALID,914.919,VALID,0,VALID,100,VALID,-0.0169808,VALID,19.727,VALID,24,VALID,0,
2008-11-06, 03:36:00,VALID,914.917,VALID,0,VALID,100,VALID,-0.0169808,VALID,19.7205,VALID,24,VALID,0,
2008-11-06, 03:37:00,VALID,914.908,VALID,0,VALID,100,VALID,0,VALID,19.7208,VALID,24,VALID,0,
2008-11-06, 03:38:00,VALID,914.909,VALID,0,VALID,100,VALID,-0.0509425,VALID,19.718,VALID,24,VALID,0,
2008-11-06, 03:39:00,VALID,914.906,VALID,0,VALID,100,VALID,0,VALID,19.721,VALID,24,VALID,0,
2008-11-06, 03:40:00,VALID,914.92,VALID,0,VALID,100,VALID,0,VALID,19.7442,VALID,24,VALID,0,
2008-11-06, 03:41:00,VALID,914.918,VALID,0,VALID,100,VALID,-0.0509425,VALID,19.7407,VALID,24,VALID,0,
2008-11-06, 03:42:00,VALID,914.938,VALID,0,VALID,100,VALID,0.0169808,VALID,19.7402,VALID,24,VALID,0,
2008-11-06, 03:43:00,VALID,914.932,VALID,0,VALID,100,VALID,-0.0169808,VALID,19.7375,VALID,24,VALID,0,
2008-11-06, 03:44:00,VALID,914.946,VALID,0,VALID,100,VALID,0,VALID,19.7313,VALID,24,VALID,0,
2008-11-06, 03:45:00,VALID,914.945,VALID,0,VALID,100,VALID,-0.0169808,VALID,19.728,VALID,24,VALID,0,
2008-11-06, 03:46:00,VALID,914.945,VALID,0,VALID,100,VALID,-0.0339617,VALID,19.7153,VALID,26,VALID,0,
2008-11-06, 03:47:00,VALID,914.941,VALID,0,VALID,100,VALID,0,VALID,19.6921,VALID,9,VALID,0,
2008-11-06, 03:48:00,VALID,914.95,VALID,0,VALID,100,VALID,0.0169808,VALID,19.6856,VALID,282,VALID,0,
2008-11-06, 03:49:00,VALID,914.931,VALID,0,VALID,100,VALID,-0.0509425,VALID,19.6761,VALID,168,VALID,0.0555753,
2008-11-06, 03:50:00,VALID,914.932,VALID,0,VALID,100,VALID,-0.101885,VALID,19.6706,VALID,35,VALID,0.283067,
2008-11-06, 03:51:00,VALID,914.937,VALID,0,VALID,100,VALID,-0.101885,VALID,19.6706,VALID,4,VALID,0.670703,
2008-11-06, 03:52:00,VALID,914.949,VALID,0,VALID,100,VALID,-0.118866,VALID,19.6773,VALID,28,VALID,0.0226935,
2008-11-06, 03:53:00,VALID,914.943,VALID,0,VALID,100,VALID,-0.101885,VALID,19.6906,VALID,28,VALID,0,
2008-11-06, 03:54:00,VALID,914.939,VALID,0.2,VALID,100,VALID,-0.118866,VALID,19.6908,VALID,28,VALID,0.00145349,